FHY221 OEJN-LTAI

Flight info

Callsign FHY221
Flight time 2h 37m
Altitude 34000
Route MIGDA L677 GESON/N0457F360 DCT LAGVI Q777 RASDA M855 TOMBI
Aircraft A320/M-SDE3FGHIRWY/LB1

Departure

Time 2026-05-07 17:15
Airport King Abdulaziz International Airport (OEJN)

Arrival

Time 2026-05-07 19:52
Airport Antalya International Airport (LTAI)
Time Latitude Longitude Altitude Speed Heading
2026-05-07 16:37 21.67451 39.14569 33 ft 0 kts 110°
2026-05-07 16:59 21.67458 39.14549 32 ft 4 kts 110°
2026-05-07 17:00 21.67466 39.14528 32 ft 3 kts 110°
2026-05-07 17:00 21.67475 39.14501 33 ft 4 kts 111°
2026-05-07 17:00 21.67486 39.14475 31 ft 4 kts 123°
2026-05-07 17:00 21.67502 39.14458 32 ft 1 kts 159°
2026-05-07 17:01 21.67502 39.14457 32 ft 0 kts 159°
2026-05-07 17:05 21.67498 39.14459 31 ft 3 kts 159°
2026-05-07 17:05 21.67446 39.14481 33 ft 9 kts 159°
2026-05-07 17:05 21.67369 39.14511 34 ft 16 kts 163°
2026-05-07 17:06 21.67295 39.14553 34 ft 10 kts 124°
2026-05-07 17:06 21.67310 39.14642 33 ft 17 kts 70°
2026-05-07 17:06 21.67345 39.14741 33 ft 14 kts 69°
2026-05-07 17:06 21.67378 39.14835 32 ft 11 kts 69°
2026-05-07 17:07 21.67403 39.14911 32 ft 12 kts 70°
2026-05-07 17:07 21.67435 39.15004 31 ft 14 kts 70°
2026-05-07 17:07 21.67471 39.15107 30 ft 15 kts 69°
2026-05-07 17:07 21.67510 39.15218 30 ft 17 kts 69°
2026-05-07 17:08 21.67550 39.15338 30 ft 18 kts 70°
2026-05-07 17:08 21.67593 39.15466 29 ft 19 kts 70°
2026-05-07 17:08 21.67629 39.15567 29 ft 14 kts 69°
2026-05-07 17:08 21.67635 39.15667 30 ft 13 kts 128°
2026-05-07 17:09 21.67562 39.15705 30 ft 11 kts 160°
2026-05-07 17:09 21.67481 39.15737 30 ft 15 kts 160°
2026-05-07 17:09 21.67390 39.15773 30 ft 13 kts 160°
2026-05-07 17:09 21.67314 39.15802 31 ft 11 kts 160°
2026-05-07 17:10 21.67219 39.15839 31 ft 21 kts 160°
2026-05-07 17:10 21.67074 39.15897 31 ft 21 kts 159°
2026-05-07 17:10 21.66964 39.15941 32 ft 14 kts 160°
2026-05-07 17:10 21.66881 39.15973 32 ft 12 kts 160°
2026-05-07 17:11 21.66812 39.16001 33 ft 10 kts 160°
2026-05-07 17:11 21.66755 39.16024 33 ft 8 kts 159°
2026-05-07 17:11 21.66686 39.16051 33 ft 21 kts 160°
2026-05-07 17:11 21.66546 39.16106 34 ft 15 kts 160°
2026-05-07 17:12 21.66475 39.16134 34 ft 11 kts 160°
2026-05-07 17:12 21.66391 39.16166 34 ft 16 kts 160°
2026-05-07 17:12 21.66299 39.16202 35 ft 12 kts 160°
2026-05-07 17:12 21.66228 39.16230 35 ft 10 kts 159°
2026-05-07 17:13 21.66165 39.16256 35 ft 14 kts 159°
2026-05-07 17:13 21.66086 39.16305 35 ft 11 kts 114°
2026-05-07 17:13 21.66098 39.16378 34 ft 9 kts 71°
2026-05-07 17:13 21.66122 39.16448 34 ft 10 kts 59°
2026-05-07 17:14 21.66185 39.16460 32 ft 11 kts 342°
2026-05-07 17:14 21.66206 39.16452 33 ft 0 kts 340°
2026-05-07 17:14 21.66224 39.16445 33 ft 13 kts 340°
2026-05-07 17:14 21.66574 39.16308 35 ft 93 kts 340°
2026-05-07 17:15 21.67402 39.15984 38 ft 156 kts 341°
2026-05-07 17:15 21.68485 39.15557 534 ft 173 kts 341°
2026-05-07 17:15 21.69656 39.15100 1212 ft 186 kts 340°
2026-05-07 17:15 21.70924 39.14599 1855 ft 203 kts 340°
2026-05-07 17:16 21.72309 39.14053 2515 ft 222 kts 340°
2026-05-07 17:16 21.73828 39.13453 3173 ft 242 kts 339°
2026-05-07 17:16 21.75490 39.12794 3641 ft 266 kts 339°
2026-05-07 17:16 21.76659 39.12332 3874 ft 275 kts 339°
2026-05-07 17:17 21.78488 39.11612 4464 ft 282 kts 339°
2026-05-07 17:17 21.80347 39.10879 5078 ft 286 kts 339°
2026-05-07 17:17 21.82223 39.10136 5786 ft 287 kts 339°
2026-05-07 17:17 21.84095 39.09390 6512 ft 287 kts 338°
2026-05-07 17:18 21.85950 39.08578 7178 ft 288 kts 335°
2026-05-07 17:18 21.87791 39.07713 7833 ft 290 kts 333°
2026-05-07 17:18 21.89637 39.06826 8518 ft 291 kts 333°
2026-05-07 17:18 21.91493 39.05933 9194 ft 293 kts 333°
2026-05-07 17:19 21.93363 39.05038 9854 ft 295 kts 333°
2026-05-07 17:19 21.95285 39.04122 10108 ft 313 kts 334°
2026-05-07 17:19 21.97346 39.03141 10231 ft 334 kts 334°
2026-05-07 17:19 21.99532 39.02099 10354 ft 353 kts 333°
2026-05-07 17:20 22.01820 39.01011 10695 ft 364 kts 333°
2026-05-07 17:20 22.04156 38.99909 11207 ft 368 kts 333°
2026-05-07 17:20 22.06514 38.98801 11755 ft 372 kts 333°
2026-05-07 17:20 22.08895 38.97683 12307 ft 375 kts 333°
2026-05-07 17:21 22.11301 38.96551 12860 ft 379 kts 333°
2026-05-07 17:21 22.13727 38.95408 13415 ft 382 kts 332°
2026-05-07 17:21 22.16169 38.94253 13926 ft 386 kts 332°
2026-05-07 17:21 22.18611 38.93099 14404 ft 389 kts 332°
2026-05-07 17:22 22.21128 38.91906 14898 ft 392 kts 332°
2026-05-07 17:22 22.23608 38.90728 15378 ft 395 kts 332°
2026-05-07 17:22 22.26136 38.89528 15847 ft 398 kts 332°
2026-05-07 17:22 22.28684 38.88320 16349 ft 402 kts 332°
2026-05-07 17:23 22.31252 38.87106 16827 ft 405 kts 332°
2026-05-07 17:23 22.33845 38.85877 17305 ft 408 kts 332°
2026-05-07 17:23 22.36455 38.84638 17786 ft 411 kts 332°
2026-05-07 17:23 22.39094 38.83385 18248 ft 415 kts 332°
2026-05-07 17:24 22.41744 38.82130 18677 ft 417 kts 332°
2026-05-07 17:24 22.44413 38.80866 19127 ft 419 kts 332°
2026-05-07 17:24 22.47082 38.79600 19567 ft 420 kts 332°
2026-05-07 17:24 22.49762 38.78326 20001 ft 422 kts 332°
2026-05-07 17:25 22.52457 38.77044 20437 ft 424 kts 332°
2026-05-07 17:25 22.55159 38.75756 20846 ft 425 kts 332°
2026-05-07 17:25 22.57875 38.74460 21263 ft 427 kts 332°
2026-05-07 17:25 22.60603 38.73162 21665 ft 429 kts 332°
2026-05-07 17:26 22.63348 38.71857 22054 ft 431 kts 332°
2026-05-07 17:26 22.66105 38.70561 22438 ft 433 kts 332°
2026-05-07 17:26 22.68893 38.69299 22815 ft 435 kts 333°
2026-05-07 17:26 22.71706 38.68062 23193 ft 437 kts 333°
2026-05-07 17:27 22.74503 38.66848 23523 ft 439 kts 333°
2026-05-07 17:27 22.77343 38.65613 23810 ft 441 kts 333°
2026-05-07 17:27 22.80192 38.64366 24092 ft 443 kts 333°
2026-05-07 17:27 22.83048 38.63106 24370 ft 444 kts 332°
2026-05-07 17:28 22.85919 38.61829 24641 ft 446 kts 332°
2026-05-07 17:28 22.88799 38.60545 24922 ft 448 kts 332°
2026-05-07 17:28 22.91695 38.59252 25182 ft 451 kts 332°
2026-05-07 17:28 22.94607 38.57953 25447 ft 453 kts 332°
2026-05-07 17:29 22.97530 38.56650 25704 ft 455 kts 332°
2026-05-07 17:29 23.00461 38.55345 25956 ft 457 kts 332°
2026-05-07 17:29 23.03414 38.54033 26204 ft 459 kts 332°
2026-05-07 17:29 23.06379 38.52713 26449 ft 461 kts 332°
2026-05-07 17:30 23.09310 38.51405 26677 ft 463 kts 332°
2026-05-07 17:30 23.12329 38.50056 26915 ft 464 kts 332°
2026-05-07 17:30 23.15299 38.48726 27134 ft 466 kts 332°
2026-05-07 17:30 23.18301 38.47383 27361 ft 468 kts 332°
2026-05-07 17:31 23.21320 38.46033 27561 ft 470 kts 332°
2026-05-07 17:31 23.24350 38.44680 27751 ft 472 kts 332°
2026-05-07 17:31 23.27400 38.43319 27953 ft 474 kts 332°
2026-05-07 17:31 23.30456 38.41954 28153 ft 475 kts 331°
2026-05-07 17:32 23.33517 38.40585 28330 ft 477 kts 331°
2026-05-07 17:32 23.36591 38.39208 28525 ft 478 kts 331°
2026-05-07 17:32 23.39662 38.37828 28781 ft 477 kts 331°
2026-05-07 17:32 23.42730 38.36450 29053 ft 476 kts 331°
2026-05-07 17:33 23.45795 38.35072 29322 ft 476 kts 331°
2026-05-07 17:33 23.48858 38.33696 29562 ft 477 kts 331°
2026-05-07 17:33 23.51931 38.32319 29793 ft 477 kts 331°
2026-05-07 17:33 23.55005 38.30942 30023 ft 477 kts 331°
2026-05-07 17:34 23.58073 38.29565 30236 ft 477 kts 330°
2026-05-07 17:34 23.61142 38.28186 30455 ft 477 kts 330°
2026-05-07 17:34 23.64206 38.26805 30662 ft 476 kts 330°
2026-05-07 17:34 23.67265 38.25427 30879 ft 476 kts 330°
2026-05-07 17:35 23.70329 38.24047 31104 ft 476 kts 330°
2026-05-07 17:35 23.73387 38.22667 31302 ft 475 kts 330°
2026-05-07 17:35 23.76439 38.21288 31519 ft 476 kts 329°
2026-05-07 17:35 23.79504 38.19902 31704 ft 476 kts 329°
2026-05-07 17:36 23.82558 38.18521 31942 ft 476 kts 329°
2026-05-07 17:36 23.85618 38.17141 32184 ft 474 kts 329°
2026-05-07 17:36 23.88661 38.15771 32401 ft 474 kts 329°
2026-05-07 17:36 23.91711 38.14397 32604 ft 473 kts 329°
2026-05-07 17:37 23.94743 38.13028 32815 ft 472 kts 328°
2026-05-07 17:37 23.97771 38.11655 33028 ft 471 kts 328°
2026-05-07 17:37 24.00799 38.10280 33237 ft 470 kts 328°
2026-05-07 17:37 24.03825 38.08909 33479 ft 470 kts 328°
2026-05-07 17:38 24.06807 38.07560 33687 ft 470 kts 328°
2026-05-07 17:38 24.09831 38.06189 33772 ft 470 kts 328°
2026-05-07 17:38 24.15741 38.03233 33782 ft 458 kts 319°
2026-05-07 17:39 24.20975 37.99359 33781 ft 453 kts 316°
2026-05-07 17:39 24.26163 37.95454 33782 ft 454 kts 316°
2026-05-07 17:40 24.31360 37.91555 33781 ft 452 kts 316°
2026-05-07 17:40 24.36554 37.87658 33823 ft 452 kts 316°
2026-05-07 17:41 24.41752 37.83756 33814 ft 452 kts 316°
2026-05-07 17:41 24.46946 37.79848 33822 ft 453 kts 316°
2026-05-07 17:42 24.52142 37.75939 33830 ft 452 kts 316°
2026-05-07 17:42 24.57326 37.72020 33830 ft 452 kts 316°
2026-05-07 17:43 24.62519 37.68095 33873 ft 452 kts 316°
2026-05-07 17:43 24.67695 37.64185 33892 ft 451 kts 316°
2026-05-07 17:44 24.72836 37.60295 33882 ft 451 kts 316°
2026-05-07 17:44 24.78006 37.56381 33879 ft 451 kts 315°
2026-05-07 17:45 24.83177 37.52469 33875 ft 451 kts 315°
2026-05-07 17:45 24.88338 37.48550 33888 ft 451 kts 315°
2026-05-07 17:46 24.93504 37.44620 33898 ft 451 kts 315°
2026-05-07 17:46 24.98666 37.40691 33920 ft 451 kts 315°
2026-05-07 17:47 25.03839 37.36752 33889 ft 452 kts 315°
2026-05-07 17:47 25.09034 37.32801 33879 ft 453 kts 315°
2026-05-07 17:48 25.14224 37.28844 33886 ft 454 kts 315°
2026-05-07 17:48 25.19411 37.24876 33885 ft 454 kts 315°
2026-05-07 17:49 25.24612 37.20895 33899 ft 454 kts 315°
2026-05-07 17:49 25.29786 37.16942 33892 ft 455 kts 315°
2026-05-07 17:50 25.34995 37.12953 33888 ft 456 kts 315°
2026-05-07 17:50 25.40214 37.08953 33890 ft 456 kts 315°
2026-05-07 17:51 25.45433 37.04947 33891 ft 456 kts 315°
2026-05-07 17:51 25.50645 37.00943 33893 ft 456 kts 315°
2026-05-07 17:52 25.55856 36.96927 33912 ft 456 kts 315°
2026-05-07 17:52 25.61061 36.92908 33899 ft 456 kts 315°
2026-05-07 17:53 25.66286 36.88889 33906 ft 457 kts 316°
2026-05-07 17:53 25.71475 36.84876 33892 ft 458 kts 316°
2026-05-07 17:54 25.76708 36.80827 33886 ft 459 kts 316°
2026-05-07 17:54 25.81953 36.76780 33886 ft 459 kts 316°
2026-05-07 17:55 25.87199 36.72726 33917 ft 459 kts 317°
2026-05-07 17:55 25.92423 36.68662 33911 ft 459 kts 317°
2026-05-07 17:56 25.97651 36.64593 33928 ft 459 kts 318°
2026-05-07 17:56 26.02886 36.60532 33921 ft 458 kts 318°
2026-05-07 17:57 26.07232 36.57157 33918 ft 458 kts 318°
2026-05-07 17:57 26.13333 36.52405 33906 ft 458 kts 318°
2026-05-07 17:58 26.18421 36.48193 33917 ft 451 kts 311°
2026-05-07 17:58 26.22039 36.44079 33916 ft 447 kts 308°
2026-05-07 17:59 26.26357 36.39110 33912 ft 446 kts 308°
2026-05-07 17:59 26.31376 36.33339 33930 ft 446 kts 309°
2026-05-07 18:00 26.34990 36.29173 33908 ft 446 kts 309°
2026-05-07 18:00 26.39984 36.23401 33925 ft 445 kts 310°
2026-05-07 18:01 26.43583 36.19230 33917 ft 444 kts 310°
2026-05-07 18:01 26.47869 36.14264 33917 ft 444 kts 310°
2026-05-07 18:02 26.54252 36.06860 33906 ft 443 kts 310°
2026-05-07 18:03 26.58532 36.01900 33911 ft 443 kts 310°
2026-05-07 18:03 26.62810 35.96937 33908 ft 443 kts 310°
2026-05-07 18:04 26.67077 35.91966 33920 ft 443 kts 310°
2026-05-07 18:04 26.71343 35.86988 33914 ft 443 kts 310°
2026-05-07 18:05 26.75606 35.82024 33906 ft 442 kts 310°
2026-05-07 18:05 26.79864 35.77052 33899 ft 442 kts 310°
2026-05-07 18:06 26.84113 35.72080 33901 ft 442 kts 311°
2026-05-07 18:06 26.88360 35.67111 33899 ft 441 kts 311°
2026-05-07 18:07 26.92574 35.62173 33894 ft 441 kts 311°
2026-05-07 18:07 26.96813 35.57205 33891 ft 441 kts 311°
2026-05-07 18:08 27.01044 35.52237 33887 ft 441 kts 311°
2026-05-07 18:08 27.05271 35.47257 33899 ft 441 kts 313°
2026-05-07 18:09 27.09516 35.42265 33889 ft 441 kts 313°
2026-05-07 18:09 27.13753 35.37281 33885 ft 441 kts 313°
2026-05-07 18:10 27.17977 35.32297 33884 ft 441 kts 313°
2026-05-07 18:10 27.22176 35.27329 33883 ft 441 kts 313°
2026-05-07 18:11 27.26400 35.22333 33884 ft 441 kts 313°
2026-05-07 18:11 27.30614 35.17346 33892 ft 440 kts 313°
2026-05-07 18:12 27.34829 35.12350 33892 ft 440 kts 313°
2026-05-07 18:12 27.39037 35.07360 33892 ft 440 kts 313°
2026-05-07 18:13 27.43242 35.02359 33899 ft 440 kts 313°
2026-05-07 18:13 27.47455 34.97349 33896 ft 440 kts 314°
2026-05-07 18:14 27.51666 34.92356 33896 ft 439 kts 314°
2026-05-07 18:14 27.56046 34.87568 33897 ft 439 kts 317°
2026-05-07 18:15 27.60563 34.82927 33904 ft 439 kts 317°
2026-05-07 18:15 27.65054 34.78271 33903 ft 439 kts 317°
2026-05-07 18:16 27.69508 34.73558 33902 ft 439 kts 316°
2026-05-07 18:16 27.73937 34.68833 33912 ft 438 kts 317°
2026-05-07 18:17 27.78370 34.64116 33923 ft 438 kts 317°
2026-05-07 18:17 27.82779 34.59441 33929 ft 437 kts 317°
2026-05-07 18:18 27.87212 34.54736 33928 ft 437 kts 317°
2026-05-07 18:18 27.91630 34.50023 33927 ft 436 kts 316°
2026-05-07 18:19 27.96044 34.45313 33927 ft 436 kts 317°
2026-05-07 18:19 28.00382 34.40529 33926 ft 436 kts 310°
2026-05-07 18:20 28.04227 34.35221 33925 ft 436 kts 310°
2026-05-07 18:20 28.08049 34.29925 33929 ft 436 kts 310°
2026-05-07 18:21 28.11914 34.24569 33934 ft 436 kts 310°
2026-05-07 18:21 28.15732 34.19279 33974 ft 437 kts 310°
2026-05-07 18:22 28.19574 34.13945 33973 ft 436 kts 310°
2026-05-07 18:22 28.23413 34.08606 33998 ft 436 kts 310°
2026-05-07 18:23 28.27250 34.03272 33996 ft 436 kts 310°
2026-05-07 18:23 28.31076 33.97943 33994 ft 435 kts 310°
2026-05-07 18:24 28.34902 33.92609 33992 ft 435 kts 310°
2026-05-07 18:24 28.38708 33.87279 34000 ft 434 kts 310°
2026-05-07 18:25 28.42514 33.81946 34004 ft 434 kts 310°
2026-05-07 18:25 28.46318 33.76624 33992 ft 433 kts 310°
2026-05-07 18:26 28.50094 33.71339 33973 ft 433 kts 310°
2026-05-07 18:26 28.53886 33.66011 33994 ft 433 kts 310°
2026-05-07 18:27 28.57663 33.60699 33998 ft 432 kts 310°
2026-05-07 18:27 28.61446 33.55395 33997 ft 431 kts 310°
2026-05-07 18:28 28.65216 33.50101 33997 ft 430 kts 310°
2026-05-07 18:28 28.68978 33.44802 33988 ft 430 kts 310°
2026-05-07 18:29 28.72733 33.39495 33995 ft 430 kts 310°
2026-05-07 18:29 28.76484 33.34180 33994 ft 430 kts 310°
2026-05-07 18:30 28.80217 33.28896 33999 ft 431 kts 310°
2026-05-07 18:30 28.83973 33.23571 34003 ft 431 kts 310°
2026-05-07 18:31 28.87721 33.18242 34004 ft 430 kts 310°
2026-05-07 18:31 28.91468 33.12929 34009 ft 430 kts 310°
2026-05-07 18:32 28.95215 33.07605 34011 ft 429 kts 310°
2026-05-07 18:32 28.98941 33.02287 34017 ft 428 kts 310°
2026-05-07 18:33 29.02665 32.96977 34031 ft 428 kts 310°
2026-05-07 18:33 29.06391 32.91656 34028 ft 428 kts 310°
2026-05-07 18:34 29.10101 32.86341 34023 ft 427 kts 311°
2026-05-07 18:34 29.13802 32.81036 34040 ft 426 kts 311°
2026-05-07 18:35 29.17506 32.75739 34043 ft 426 kts 311°
2026-05-07 18:35 29.21172 32.70475 34053 ft 425 kts 311°
2026-05-07 18:36 29.24855 32.65180 34055 ft 425 kts 311°
2026-05-07 18:36 29.28541 32.59864 34056 ft 424 kts 311°
2026-05-07 18:37 29.32189 32.54570 34064 ft 423 kts 311°
2026-05-07 18:37 29.35826 32.49264 34081 ft 423 kts 311°
2026-05-07 18:38 29.39459 32.43959 34072 ft 423 kts 311°
2026-05-07 18:38 29.43087 32.38653 34083 ft 423 kts 311°
2026-05-07 18:39 29.46721 32.33340 34069 ft 422 kts 311°
2026-05-07 18:39 29.50339 32.28041 34089 ft 421 kts 311°
2026-05-07 18:40 29.53947 32.22751 34096 ft 421 kts 311°
2026-05-07 18:40 29.57554 32.17461 34098 ft 420 kts 311°
2026-05-07 18:41 29.61123 32.12218 34099 ft 419 kts 311°
2026-05-07 18:41 29.64714 32.06932 34087 ft 419 kts 311°
2026-05-07 18:42 29.68288 32.01663 34098 ft 417 kts 311°
2026-05-07 18:42 29.71858 31.96409 34096 ft 416 kts 311°
2026-05-07 18:43 29.75418 31.91158 34104 ft 416 kts 311°
2026-05-07 18:43 29.78958 31.85902 34098 ft 416 kts 310°
2026-05-07 18:44 29.82411 31.80584 34097 ft 416 kts 309°
2026-05-07 18:44 29.85813 31.75209 34089 ft 415 kts 309°
2026-05-07 18:45 29.89356 31.69995 34090 ft 410 kts 318°
2026-05-07 18:45 29.94037 31.66379 34083 ft 405 kts 338°
2026-05-07 18:46 29.99512 31.64884 34075 ft 406 kts 350°
2026-05-07 18:46 30.04156 31.64061 34072 ft 407 kts 350°
2026-05-07 18:47 30.09755 31.63053 34083 ft 407 kts 349°
2026-05-07 18:47 30.15370 31.62036 34094 ft 408 kts 349°
2026-05-07 18:48 30.20981 31.61015 34091 ft 408 kts 349°
2026-05-07 18:48 30.26609 31.60001 34081 ft 409 kts 350°
2026-05-07 18:49 30.32231 31.58998 34091 ft 409 kts 350°
2026-05-07 18:49 30.37850 31.57988 34095 ft 409 kts 349°
2026-05-07 18:50 30.43441 31.56980 34090 ft 409 kts 349°
2026-05-07 18:50 30.49064 31.55961 34096 ft 409 kts 349°
2026-05-07 18:51 30.54697 31.54938 34101 ft 410 kts 349°
2026-05-07 18:51 30.60328 31.53918 34112 ft 410 kts 349°
2026-05-07 18:52 30.65959 31.52899 34111 ft 410 kts 349°
2026-05-07 18:52 30.71591 31.51874 34107 ft 409 kts 349°
2026-05-07 18:53 30.77215 31.50850 34119 ft 408 kts 349°
2026-05-07 18:53 30.82818 31.49828 34127 ft 407 kts 349°
2026-05-07 18:54 30.88407 31.48804 34134 ft 407 kts 349°
2026-05-07 18:54 30.93998 31.47780 34129 ft 406 kts 349°
2026-05-07 18:55 30.99585 31.46764 34129 ft 406 kts 349°
2026-05-07 18:55 31.05169 31.45752 34125 ft 406 kts 349°
2026-05-07 18:56 31.10750 31.44724 34134 ft 406 kts 349°
2026-05-07 18:56 31.16329 31.43696 34129 ft 406 kts 349°
2026-05-07 18:57 31.21877 31.42678 34125 ft 406 kts 349°
2026-05-07 18:57 31.27448 31.41655 34119 ft 405 kts 349°
2026-05-07 18:58 31.33034 31.40622 34126 ft 405 kts 349°
2026-05-07 18:58 31.38608 31.39584 34135 ft 405 kts 349°
2026-05-07 18:59 31.44179 31.38545 34131 ft 405 kts 349°
2026-05-07 18:59 31.49744 31.37513 34131 ft 405 kts 349°
2026-05-07 19:00 31.55275 31.36489 34127 ft 405 kts 349°
2026-05-07 19:00 31.60881 31.35733 34138 ft 406 kts 353°
2026-05-07 19:01 31.66520 31.35240 34134 ft 406 kts 353°
2026-05-07 19:01 31.72154 31.34738 34134 ft 406 kts 353°
2026-05-07 19:02 31.77783 31.34166 34133 ft 406 kts 352°
2026-05-07 19:02 31.83409 31.33560 34135 ft 405 kts 352°
2026-05-07 19:03 31.89035 31.32960 34141 ft 406 kts 352°
2026-05-07 19:03 31.94623 31.32372 34140 ft 405 kts 352°
2026-05-07 19:04 32.00242 31.31777 34138 ft 405 kts 352°
2026-05-07 19:04 32.05896 31.31177 34139 ft 405 kts 352°
2026-05-07 19:05 32.11484 31.30584 34147 ft 406 kts 352°
2026-05-07 19:05 32.17112 31.29982 34143 ft 406 kts 352°
2026-05-07 19:06 32.22743 31.29377 34147 ft 406 kts 352°
2026-05-07 19:06 32.31185 31.28467 34154 ft 406 kts 352°
2026-05-07 19:07 32.36809 31.27855 34153 ft 406 kts 352°
2026-05-07 19:07 32.42430 31.27248 34153 ft 406 kts 352°
2026-05-07 19:08 32.48056 31.26639 34147 ft 405 kts 352°
2026-05-07 19:08 32.53637 31.26036 34148 ft 405 kts 352°
2026-05-07 19:09 32.59118 31.24743 34165 ft 401 kts 338°
2026-05-07 19:09 32.64131 31.21918 34168 ft 398 kts 333°
2026-05-07 19:10 32.69082 31.19029 34171 ft 396 kts 333°
2026-05-07 19:10 32.74022 31.16148 34178 ft 395 kts 333°
2026-05-07 19:11 32.78941 31.13268 34176 ft 394 kts 333°
2026-05-07 19:11 32.83850 31.10387 34184 ft 393 kts 333°
2026-05-07 19:12 32.88752 31.07507 34182 ft 392 kts 333°
2026-05-07 19:12 32.93646 31.04635 34176 ft 392 kts 333°
2026-05-07 19:13 32.98535 31.01755 34167 ft 392 kts 333°
2026-05-07 19:13 33.03395 30.98890 34171 ft 392 kts 333°
2026-05-07 19:14 33.08312 30.96072 34164 ft 393 kts 338°
2026-05-07 19:14 33.13686 30.94840 34182 ft 398 kts 353°
2026-05-07 19:15 33.19224 30.94642 34181 ft 397 kts 353°
2026-05-07 19:15 33.24745 30.94442 34181 ft 396 kts 353°
2026-05-07 19:16 33.30254 30.94228 34178 ft 396 kts 353°
2026-05-07 19:16 33.35758 30.94018 34170 ft 395 kts 353°
2026-05-07 19:17 33.41260 30.93815 34172 ft 395 kts 353°
2026-05-07 19:17 33.46761 30.93614 34166 ft 395 kts 353°
2026-05-07 19:18 33.52262 30.93405 34165 ft 395 kts 353°
2026-05-07 19:18 33.57766 30.93190 34176 ft 396 kts 353°
2026-05-07 19:19 33.63275 30.92978 34165 ft 396 kts 353°
2026-05-07 19:19 33.68792 30.92771 34158 ft 397 kts 353°
2026-05-07 19:20 33.74318 30.92575 34157 ft 397 kts 353°
2026-05-07 19:20 33.79843 30.92365 34168 ft 397 kts 353°
2026-05-07 19:21 33.85388 30.92152 34145 ft 399 kts 353°
2026-05-07 19:21 33.90945 30.91941 34145 ft 400 kts 353°
2026-05-07 19:22 33.96512 30.91727 34141 ft 400 kts 353°
2026-05-07 19:22 34.02081 30.91435 34153 ft 401 kts 352°
2026-05-07 19:23 34.07664 30.91098 34135 ft 402 kts 352°
2026-05-07 19:23 34.13268 30.90760 34147 ft 404 kts 352°
2026-05-07 19:24 34.18889 30.90443 34141 ft 404 kts 352°
2026-05-07 19:24 34.24490 30.90135 34140 ft 405 kts 353°
2026-05-07 19:25 34.30130 30.89859 34145 ft 405 kts 353°
2026-05-07 19:25 34.35766 30.89597 34149 ft 405 kts 353°
2026-05-07 19:26 34.41402 30.89326 34153 ft 405 kts 353°
2026-05-07 19:26 34.47029 30.89049 34167 ft 405 kts 353°
2026-05-07 19:27 34.52675 30.88768 34140 ft 407 kts 353°
2026-05-07 19:27 34.58344 30.88484 34130 ft 409 kts 353°
2026-05-07 19:28 34.64006 30.88218 34133 ft 410 kts 354°
2026-05-07 19:28 34.69713 30.88028 34142 ft 411 kts 354°
2026-05-07 19:29 34.75447 30.87872 34123 ft 413 kts 354°
2026-05-07 19:29 34.81220 30.87689 33744 ft 418 kts 354°
2026-05-07 19:30 34.84134 30.87589 33343 ft 420 kts 354°
2026-05-07 19:30 34.87069 30.87487 32944 ft 422 kts 354°
2026-05-07 19:30 34.90017 30.87387 32553 ft 425 kts 355°
2026-05-07 19:30 34.92976 30.87284 32177 ft 428 kts 355°
2026-05-07 19:31 34.95970 30.87178 31799 ft 432 kts 355°
2026-05-07 19:31 34.98009 30.87108 31544 ft 434 kts 355°
2026-05-07 19:31 35.01037 30.87011 31169 ft 437 kts 355°
2026-05-07 19:31 35.04086 30.86916 30761 ft 439 kts 355°
2026-05-07 19:32 35.07149 30.86821 30354 ft 441 kts 355°
2026-05-07 19:32 35.10188 30.86720 29905 ft 443 kts 355°
2026-05-07 19:32 35.13277 30.86576 29431 ft 445 kts 355°
2026-05-07 19:32 35.16367 30.86391 28974 ft 446 kts 354°
2026-05-07 19:33 35.19464 30.86186 28544 ft 445 kts 354°
2026-05-07 19:33 35.22546 30.85976 28117 ft 442 kts 354°
2026-05-07 19:33 35.25611 30.85767 27700 ft 440 kts 354°
2026-05-07 19:33 35.28661 30.85565 27282 ft 437 kts 355°
2026-05-07 19:34 35.31691 30.85373 26876 ft 435 kts 355°
2026-05-07 19:34 35.34704 30.85191 26476 ft 432 kts 355°
2026-05-07 19:34 35.37704 30.85012 26087 ft 430 kts 355°
2026-05-07 19:34 35.40681 30.84831 25698 ft 427 kts 355°
2026-05-07 19:35 35.43639 30.84645 25315 ft 425 kts 355°
2026-05-07 19:35 35.46586 30.84458 24936 ft 423 kts 355°
2026-05-07 19:35 35.49520 30.84276 24563 ft 421 kts 355°
2026-05-07 19:35 35.52440 30.84096 24192 ft 418 kts 355°
2026-05-07 19:36 35.55340 30.83915 23826 ft 416 kts 355°
2026-05-07 19:36 35.58232 30.83734 23415 ft 414 kts 355°
2026-05-07 19:36 35.61101 30.83554 22994 ft 411 kts 355°
2026-05-07 19:36 35.63944 30.83378 22566 ft 408 kts 355°
2026-05-07 19:37 35.66769 30.83204 22156 ft 405 kts 355°
2026-05-07 19:37 35.69580 30.83034 21743 ft 402 kts 355°
2026-05-07 19:37 35.72365 30.82865 21335 ft 400 kts 355°
2026-05-07 19:37 35.75135 30.82695 20937 ft 397 kts 355°
2026-05-07 19:38 35.77884 30.82523 20541 ft 394 kts 355°
2026-05-07 19:38 35.80612 30.82351 20161 ft 391 kts 355°
2026-05-07 19:38 35.83324 30.82181 19773 ft 388 kts 355°
2026-05-07 19:38 35.86016 30.82012 19396 ft 385 kts 355°
2026-05-07 19:39 35.88688 30.81842 19028 ft 383 kts 354°
2026-05-07 19:39 35.91337 30.81673 18649 ft 380 kts 354°
2026-05-07 19:39 35.93969 30.81505 18273 ft 378 kts 354°
2026-05-07 19:39 35.96591 30.81342 17838 ft 376 kts 355°
2026-05-07 19:40 35.99195 30.81179 17423 ft 374 kts 355°
2026-05-07 19:40 36.01793 30.81016 17010 ft 372 kts 355°
2026-05-07 19:40 36.04375 30.80855 16613 ft 371 kts 355°
2026-05-07 19:40 36.06949 30.80693 16214 ft 369 kts 355°
2026-05-07 19:41 36.09486 30.80533 15823 ft 368 kts 355°
2026-05-07 19:41 36.12040 30.80367 15433 ft 367 kts 355°
2026-05-07 19:41 36.14585 30.80202 15042 ft 366 kts 355°
2026-05-07 19:41 36.17124 30.80039 14669 ft 365 kts 355°
2026-05-07 19:42 36.19659 30.79879 14287 ft 364 kts 355°
2026-05-07 19:42 36.22185 30.79719 13914 ft 363 kts 355°
2026-05-07 19:42 36.24697 30.79562 13508 ft 360 kts 355°
2026-05-07 19:42 36.27181 30.79408 13089 ft 354 kts 356°
2026-05-07 19:43 36.29615 30.79256 12678 ft 348 kts 356°
2026-05-07 19:43 36.32013 30.79106 12271 ft 342 kts 356°
2026-05-07 19:43 36.34372 30.78956 11868 ft 337 kts 356°
2026-05-07 19:43 36.36696 30.78806 11479 ft 332 kts 356°
2026-05-07 19:44 36.38981 30.78661 11084 ft 327 kts 356°
2026-05-07 19:44 36.41239 30.78520 10704 ft 322 kts 356°
2026-05-07 19:44 36.43468 30.78377 10324 ft 318 kts 357°
2026-05-07 19:44 36.45638 30.78234 9886 ft 306 kts 357°
2026-05-07 19:45 36.47721 30.78097 9387 ft 294 kts 357°
2026-05-07 19:45 36.49722 30.77966 8900 ft 283 kts 357°
2026-05-07 19:45 36.51662 30.77839 8423 ft 275 kts 357°
2026-05-07 19:45 36.53563 30.77718 7948 ft 272 kts 358°
2026-05-07 19:46 36.55445 30.77598 7480 ft 271 kts 358°
2026-05-07 19:46 36.57332 30.77479 7022 ft 272 kts 358°
2026-05-07 19:46 36.59221 30.77361 6569 ft 273 kts 358°
2026-05-07 19:46 36.61119 30.77242 6092 ft 273 kts 358°
2026-05-07 19:47 36.63007 30.77123 5613 ft 266 kts 358°
2026-05-07 19:47 36.64822 30.77007 5142 ft 256 kts 358°
2026-05-07 19:47 36.66546 30.76895 4672 ft 247 kts 358°
2026-05-07 19:47 36.68263 30.76784 4209 ft 240 kts 357°
2026-05-07 19:48 36.69889 30.76680 3754 ft 235 kts 357°
2026-05-07 19:48 36.71510 30.76715 3324 ft 230 kts
2026-05-07 19:48 36.73050 30.76934 3179 ft 219 kts
2026-05-07 19:48 36.74549 30.77148 2928 ft 215 kts
2026-05-07 19:49 36.76028 30.77352 2657 ft 211 kts
2026-05-07 19:49 36.77449 30.77546 2394 ft 200 kts
2026-05-07 19:49 36.78779 30.77728 2156 ft 185 kts
2026-05-07 19:49 36.80012 30.77896 1911 ft 168 kts
2026-05-07 19:50 36.81116 30.78047 1681 ft 152 kts
2026-05-07 19:50 36.82133 30.78186 1483 ft 143 kts
2026-05-07 19:50 36.83111 30.78320 1295 ft 140 kts
2026-05-07 19:50 36.84083 30.78452 1114 ft 140 kts
2026-05-07 19:51 36.85048 30.78584 917 ft 140 kts
2026-05-07 19:51 36.86013 30.78716 725 ft 140 kts
2026-05-07 19:51 36.86979 30.78848 523 ft 140 kts
2026-05-07 19:51 36.87948 30.78981 334 ft 140 kts
2026-05-07 19:52 36.88916 30.79111 195 ft 138 kts
2026-05-07 19:52 36.89749 30.79225 178 ft 97 kts
2026-05-07 19:52 36.90249 30.79296 176 ft 48 kts
2026-05-07 19:52 36.90464 30.79326 176 ft 23 kts
2026-05-07 19:53 36.90612 30.79353 177 ft 17 kts 12°
2026-05-07 19:53 36.90675 30.79370 177 ft 6 kts 12°
2026-05-07 19:53 36.90690 30.79374 177 ft 4 kts 12°
2026-05-07 19:53 36.90714 30.79380 177 ft 3 kts 12°